Location: Hertford
(51.8000°N, 0.0667°W)
Time: 13:29:13
(UTC+00:00)

SPOT 3 Rocket - Pass Details

Date: 18 September 2020
Orbit: 779 x 794 km, 98.8° (Epoch: 22 October)

Event Time Altitude Azimuth Distance (km) Brightness Sun altitude
Exits shadow 20:03:39 24° 156° (SSE) 1,556 4.7 -18.1°
Maximum altitude 20:06:46 80° 72° (ENE) 799 3.4 -18.6°
Drops below altitude 10° 20:11:57 10° 346° (NNW) 2,347 6.6 -19.3°
Sets 20:14:16 0° 346° (NNW) 3,280 7.4 -19.6°
